User: anonymous   Login
Location: Unspecified
(0.0000°N, 0.0000°E)
Time: 06:45:20
(UTC+00:00)
Language:

MERIDIAN 6 - Orbit

View from above orbital plane
View from above orbital plane
View from above satellite
View from above satellite

Ground track
Ground track

The orbit data is extracted from the following two-line orbital elements,

1 38995U 12063A   19082.59432809  .00000056  00000-0  10000-3 0  9991
2 38995  65.4524 269.4269 6639755 271.5757  40.3196  2.00602108 46546
Epoch (UTC): 23 March 2019 14:15:49
Eccentricity: 0.6639755
inclination: 65.4524°
perigee height: 2545 km
apogee height: 37811 km
right ascension of ascending node: 269.4269°
argument of perigee: 271.5757°
revolutions per day: 2.00602108
mean anomaly at epoch: 40.3196°
orbit number at epoch: 4654

The dashed part of the orbit path shows where the satellite is in the earth's shadow,  

DLR